• MPC Preparation (Info)

  • MPEC 2019-F147: 2019 FP1

    The following Minor Planet Electronic Circular may be linked-to from your own Web pages, but must not otherwise be redistributed electronically.

    A form allowing access to any MPEC is at the bottom of this page.


    Read MPEC 2019-F146 Read MPEC 2019-F148


    M.P.E.C. 2019-F147                               Issued 2019 Mar. 31, 22:47 UT
    
         The Minor Planet Electronic Circulars contain information on unusual
             minor planets and routine data on comets.  They are published
        on behalf of Division F of the International Astronomical Union by the
              Minor Planet Center, Smithsonian Astrophysical Observatory,
                              Cambridge, MA 02138, U.S.A.
    
                 Prepared using the Tamkin Foundation Computer Network
    
                                  MPC@CFA.HARVARD.EDU
                URL https://www.minorplanetcenter.net/    ISSN 1523-6714
    
                                       2019 FP1
    
    Observations:
         K19F01P* C2019 03 29.25169 12 06 19.89 -03 49 43.7          19.4 GVEF147G96
         K19F01P  C2019 03 29.25728 12 06 22.05 -03 51 55.4          18.9 GVEF147G96
         K19F01P  C2019 03 29.26287 12 06 24.15 -03 54 07.8          18.9 GVEF147G96
         K19F01P  C2019 03 29.26847 12 06 26.29 -03 56 19.5          19.4 GVEF147G96
         K19F01P KC2019 03 29.30235 12 06 37.27 -04 09 23.9                oEF147711
         K19F01P KC2019 03 29.30478 12 06 38.16 -04 10 20.0                oEF147711
         K19F01P KC2019 03 29.30718 12 06 39.04 -04 11 15.4                oEF147711
         K19F01P  C2019 03 29.35484 12 06 58.47 -04 29 33.9          19.3 GVEF147I52
         K19F01P  C2019 03 29.35508 12 06 58.59 -04 29 39.2          18.8 GVEF147I52
         K19F01P  C2019 03 29.35533 12 06 58.69 -04 29 45.5                VEF147I52
         K19F01P  C2019 03 29.35557 12 06 58.77 -04 29 50.2          18.9 GVEF147I52
         K19F01P KC2019 03 29.87940 12 10 45.90 -07 29 45.5          18.8 RqEF147A17
         K19F01P KC2019 03 29.89110 12 10 49.64 -07 33 22.3          19.8 RqEF147A17
         K19F01P KC2019 03 29.89322612 10 49.79 -07 33 53.2          20.3 GVEF147L01
         K19F01P IC2019 03 29.89372112 10 49.95 -07 34 01.9          20.4 GVEF147L01
         K19F01P KC2019 03 29.89629812 10 50.75 -07 34 49.5          20.3 GVEF147L01
         K19F01P KC2019 03 29.89679312 10 50.95 -07 34 58.5          20.2 GVEF147L01
         K19F01P KC2019 03 29.90307 12 10 53.43 -07 37 03.3          19.7 RqEF147A17
         K19F01P KC2019 03 29.96548 12 11 12.38 -07 55 58.3          19.2 GVEF147K87
         K19F01P KC2019 03 29.96614 12 11 12.59 -07 56 10.0          19.3 GVEF147K87
         K19F01P KC2019 03 29.96668 12 11 12.75 -07 56 19.6          19.9 GVEF147K87
         K19F01P KC2019 03 29.96897012 11 13.58 -07 56 52.1          19.8 GVEF147587
         K19F01P KC2019 03 29.97041712 11 13.98 -07 57 17.7          20.1 GVEF147587
         K19F01P KC2019 03 29.97215312 11 14.51 -07 57 49.0          19.8 GVEF147587
         K19F01P KC2019 03 30.03064312 11 33.99 -08 15 16.7          19.5 GVEF147J95
         K19F01P KC2019 03 30.03495912 11 35.25 -08 16 32.0          19.9 GVEF147J95
         K19F01P KC2019 03 30.03939912 11 36.61 -08 17 49.5          19.6 GVEF147J95
         K19F01P KC2019 03 30.04074812 11 36.42 -08 17 58.3          19.1 VqEF147I93
         K19F01P KC2019 03 30.04696412 11 38.23 -08 19 47.1          19.5 VqEF147I93
         K19F01P KC2019 03 30.05743012 11 41.27 -08 22 47.1          19.8 VqEF147I93
         K19F01P  C2019 03 30.36703 12 13 24.75 -09 47 02.1          19.4 GVEF147I52
         K19F01P  C2019 03 30.36944 12 13 25.38 -09 47 39.6          19.7 GVEF147I52
         K19F01P  C2019 03 30.37184 12 13 25.97 -09 48 16.5          20.3 GVEF147I52
         K19F01P  C2019 03 30.37424 12 13 26.59 -09 48 53.1          20.2 GVEF147I52
         K19F01P  C2019 03 31.21716 12 17 34.51 -12 58 27.8          21.3 GVEF147I52
         K19F01P  C2019 03 31.21910 12 17 34.87 -12 58 52.0          20.6 GVEF147I52
    
    Observer details:
    587 Sormano.  Observers A. Fumagalli, P. Sicoli, A. Testa.  Measurer
        P. Sicoli.  0.5-m f/6.8 reflector + CCD.
    711 McDonald Observatory, Fort Davis.  Observer J. G. Ries.  2.1-m reflector
        + CCD + focal reducer.
    A17 Guidestar Observatory, Weinheim.  Observers M. Emmerich, S. Melchert.
        0.36-m f/6 Schmidt-Cassegrain + CCD.
    G96 Mt. Lemmon Survey.  Observer B. M. Africano.  Measurers B. M. Africano,
        E. J. Christensen, G. A. Farneth, D. C. Fuls, A. R. Gibbs, A. D. Grauer,
        H. Groeller, R. A. Kowalski, S. M. Larson, G. J. Leonard, T. A. Pruyne,
        R. L. Seaman, F. C. Shelly.  1.5-m reflector + 10K CCD.
    I52 Steward Observatory, Mt. Lemmon Station.  Observer H. Groeller.
        Measurers B. M. Africano, E. J. Christensen, G. A. Farneth, D. C. Fuls,
        A. R. Gibbs, A. D. Grauer, H. Groeller, R. A. Kowalski, S. M. Larson,
        G. J. Leonard, T. A. Pruyne, R. L. Seaman, F. C. Shelly.  1.0-m reflector
        + CCD.
    I93 St Pardon de Conques.  Observer F. Losse.  0.40-m f/3.7 reflector + CCD.
    J95 Great Shefford.  Observer P. Birtwhistle.  0.41-m f/6.3
        Schmidt-Cassegrain + CCD.
    K87 Dettelbach Vineyard Observatory.  Observer B. Haeusler.  0.30-m
        Schmidt-Cassegrain + CCD.
    L01 Visnjan Observatory, Tican.  Observers K. Korlevic, I. Lyon, G. Kervina.
        Measurer K. Korlevic.  1.0-m f/2.9 reflector + CCD.
    
    Orbital elements:
    2019 FP1                                                 Earth MOID = 0.0141 AU
    Epoch 2019 Apr. 27.0 TT = JDT 2458600.5                 MPC
    M  22.46055              (2000.0)            P               Q
    n   0.32386389     Peri.  125.24144     -0.67469799     -0.73776005
    a   2.1000406      Node     7.31304     +0.60780760     -0.57241309
    e   0.5868959      Incl.   10.04284     +0.41875117     -0.35784544
    P   3.04           H   26.4           G   0.15           U   7
    Residuals in seconds of arc
    190329 G96  0.2-  0.2-    190329 A17  0.1+  0.1+    190330 J95  0.1+  0.1+
    190329 G96  0.1+  0.4+    190329 L01  0.0   0.6-    190330 J95  0.4-  0.2+
    190329 G96  0.4-  0.1-    190329 L01  0.1+  0.2-    190330 J95  0.0   0.1+
    190329 G96  0.1-  0.1+    190329 L01  0.2+  0.2-    190330 I93  0.5+  0.4-
    190329 711  0.1+  0.0     190329 L01  0.9+  0.1-    190330 I93  0.3+  1.1-
    190329 711  0.1-  0.2+    190329 A17  0.2+  0.1+    190330 I93  0.1-  0.3+
    190329 711  0.3-  0.3+    190329 K87  0.4+  0.1+    190330 I52  0.4-  0.2-
    190329 I52  0.6-  0.3-    190329 K87  0.5+  0.3+    190330 I52  0.0   0.5-
    190329 I52  0.1-  0.2-    190329 K87  0.5+  0.4+    190330 I52  0.3-  0.3-
    190329 I52  0.0   0.8-    190329 587  0.5+  0.2+    190330 I52  0.1-  0.1+
    190329 I52  0.2-  0.1-    190329 587  0.0   0.6+    190331 I52  0.4-  0.5+
    190329 A17  0.0   0.1-    190329 587  0.2+  0.3+    190331 I52  0.5-  0.7-
    
    Ephemeris:
    2019 FP1                 a,e,i = 2.10, 0.59, 10                  q = 0.8675
    Date    TT    R. A. (2000) Decl.     Delta      r     Elong.  Phase     V
    2019 03 01    00 48 38.0 +35 29 29   0.1951  0.8845    52.2   117.8    27.3
    ...
    2019 03 16    01 10 37.7 +44 45 50   0.07720 0.9477    50.9   125.5    26.0
    ...
    2019 03 24    05 49 46.2 +73 22 07   0.02127 0.9960    87.5    91.3    21.3
    ...
    2019 03 30    12 11 24.9 -08 02 49   0.03894 1.0372   173.1     6.6    19.9
    2019 03 31    12 16 33.6 -12 12 12   0.04618 1.0443   170.4     9.2    20.4
    2019 04 01    12 20 24.1 -15 12 32   0.05364 1.0516   168.1    11.3    20.9
    ...
    2019 04 07    12 31 54.9 -23 21 25   0.1007  1.0969   161.8    16.6    22.5
    ...
    2019 04 15    12 38 11.9 -26 25 00   0.1671  1.1606   159.0    18.0    23.8
    ...
    2019 04 30    12 46 38.7 -27 22 34   0.3043  1.2864   153.4    20.5    25.4
    
    A. U. Tomatic                (C) Copyright 2019 MPC           M.P.E.C. 2019-F147
    

    Read MPEC 2019-F146 Read MPEC 2019-F148


    MPEC number:

    Enter an MPEC number in one of the following forms:

    • 1997-B01 (the full form)
    • J97B01 (the packed version of the full form)
    • B01 (the abbreviated form)